RADFXSAT (FOX-1B) (43017 NORAD) Tracking and Keplerian Element Data

This shows tracking and keplerian element data for the satellite.

Feedback or suggestion? Click here.




ElementValue
Catalog43017
NameRADFXSAT (FOX-1B)
Epoch Orbit26204
Epoch Day269.26221983
Epoch Year2022
RAAN159.3068
Inclination97.6601
Eccentricity0.024543
Argument of Perigee217.2702
Mean Anonmoly141.1263
Mean Motion14.82064084
Decay Rate3.209E-05
L11 43017U 17073E 22269.26221983 .00003209 00000+0 24324-3 0 9998
L22 43017 97.6601 159.3068 0245430 217.2702 141.1263 14.82064084262046

Live tracking and technical data element details for RADFXSAT (FOX-1B) (NORAD 43017). RADFXSAT (FOX-1B) can be tracked NOW for your location showing map with azimuth and elevation plus other details from your city location.

Track the satellite on the map from your city or location and see movement details for azimuth, elevation, latitude, longitude, range, height, and movement on the map or in text.







IsCatalogInMostPopularTable: catalog: 43017, numindb: 1066
Update: records affected: 1



GetName: 43017 RADFXSAT (FOX-1B)

Hit Count: updated at: Wed, 28 Sep 2022 22:38:34 GMT